Location: Bremen
(53.0796°N, 8.8241°E)
Time: 08:28:40
(UTC+01:00)

ISS - Pass Details

Date: 10 January 2018
Orbit: 402 x 406 km, 51.6° (Epoch: 16 January)

Event Time Altitude Azimuth Distance (km) Brightness Sun altitude
Exits shadow 04:59:59 11° 98° (E) 1,394 -0.3 -31.1°
Drops below altitude 10° 05:00:09 10° 98° (E) 1,466 -0.2 -31.1°
Sets 05:02:14 0° 96° (E) 2,327 1.2 -30.8°
